Regional Weather Roundup
Issued by NWS Binghamton, NY

Home | Current Version | Previous Version | Text Only | Print | Product List | Glossary On
Versions: 1 2 3 4 5 6 7 8 9 10 11 12 13 14 15 16 17 18 19 20 21 22 23 24 25 26 27 28 29 30 31 32 33 34 35 36 37 38 39 40 41 42 43 44 45 46 47 48 49 50
000
ASUS41 KBGM 181810
RWRBGM
RWRBGM
BINGHAMTON REGIONAL WEATHER ROUNDUP
NATIONAL WEATHER SERVICE BINGHAMTON NY
200 PM EDT THU SEP 18 2014

Note: "fair" indicates few or no clouds below 12,000 feet with no
significant weather and/or obstructions to visibility.

* = Station(s) that does not report precipitation, such as rain,
snow, etc, also no thunder or fog.

!NYZ009-015>018-022>025-036-037-044>046-055>057-062-181900
...CENTRAL NEW YORK...

CITY           SKY/WX    TMP DP  RH WIND       PRES   REMARKS
BINGHAMTON     MOSUNNY   65  49  56 NW8       30.05S
CORTLAND       PTSUNNY   63  52  67 NW8       30.07S
DANSVILLE      PTSUNNY   62  53  72 NW13      30.09R
ELMIRA         PTSUNNY   66  53  63 N10       30.05S
ITHACA         PTSUNNY   66  51  58 MISG      30.07S
HAMILTON       CLOUDY    61  54  77 N3        30.05S
MONTICELLO     PTSUNNY   64  43  45 N12       30.04F
NORWICH        CLOUDY    63  52  67 N5        30.05S
ONEONTA        MOSUNNY   59  46  63 NW5       30.05S
PENN YAN       CLOUDY    58  52  80 VRB6      30.09R
ROME           PTSUNNY   60  51  72 NE13G21   30.06S
SIDNEY         PTSUNNY   70  54  56 NW5       30.03F
SYRACUSE       CLOUDY    62  51  67 NW12      30.08S
$$

!PAZ038>040-043-044-047-048-072-181900
...NORTHEAST PENNSYLVANIA...

CITY           SKY/WX    TMP DP  RH WIND       PRES   REMARKS
HAZLETON       MOSUNNY   68  45  42 W6        30.07S
SCRANTON       MOSUNNY   70  41  34 MISG      30.02F
TOWANDA*       SUNNY     68  46  45 S6        30.05F
$$
&&
KEY
WCI = WIND CHILL INDEX
VSB = VISIBILITY
HX  = HEAT INDEX
$$


USA.gov is the U.S. government's official web portal to all federal, state and local government web resources and services.